This demonstration page uses our WeatherBlox Daily Observations layout. Learn more.

Left ArrowRight Arrow

34.02893, -84.19858

Hourly Observations for March 28, 2016

Temp ( °F °C ) Dew Point ( °F °C ) Humidity (%) Winds ( mph kmh ) Pressure ( in mb ) Visibility ( mi km ) Precip ( " mm )
12:05 am 00:05 Cloudy with Mist and Fog 61 16.1 61 16.1 100 100 SW 5 7 29.97 1015 2 3 0.00 0.00
12:13 am 00:13 Cloudy with Mist and Fog 61 16.1 61 16.1 100 100 SW 3 6 29.97 1015 5 8 0.00 0.00
12:53 am 00:53 Mostly Cloudy 61 16.1 61 16.1 100 100 W 5 7 29.98 1015 9 14 0.00 0.00
1:53 am 01:53 Cloudy 62 16.7 61 16.1 96 96 W 9 15 29.98 1015 10 16 0.00 0.00
2:53 am 02:53 Cloudy 61 16.1 61 16.1 100 100 WSW 6 9 29.97 1015 10 16 0.00 0.00
3:53 am 03:53 Mostly Cloudy 60 15.6 60 15.6 100 100 SW 3 6 29.94 1014 10 16 0.00 0.00
4:53 am 04:53 Cloudy 61 16.1 60 15.6 97 97 W 7 11 29.93 1014 10 16 0.00 0.00
5:53 am 05:53 Mostly Cloudy 60 15.6 60 15.6 100 100 WSW 7 11 29.93 1014 10 16 0.00 0.00
6:11 am 06:11 Mostly Cloudy 60 15.6 60 15.6 100 100 WSW 8 13 29.91 1013 10 16 0.00 0.00
6:42 am 06:42 Mostly Cloudy 60 15.6 60 15.6 100 100 WSW 8 13 29.94 1014 10 16 0.00 0.00
6:53 am 06:53 Mostly Cloudy 60 15.6 60 15.6 100 100 W 7 11 29.94 1014 10 16 0.00 0.00
7:20 am 07:20 Mostly Cloudy 61 16 59 15 94 94 WSW 8 13 29.94 1014 10 16 0.00 0.00
7:40 am 07:40 Mostly Cloudy 61 16 61 16 100 100 WSW 7 11 29.94 1014 10 16 0.00 0.00
7:53 am 07:53 Cloudy 60 15.6 60 15.6 100 100 WSW 6 9 29.95 1014 10 16 0.00 0.00
8:44 am 08:44 Cloudy 61 16 61 16 100 100 WSW 7 11 29.97 1015 10 16 0.00 0.00
8:53 am 08:53 Cloudy 61 16.1 60 15.6 97 97 WSW 7 11 29.98 1015 10 16 0.00 0.00
9:53 am 09:53 Partly Cloudy 63 17.2 59 15 87 87 W 9 15 29.99 1016 10 16 0.00 0.00
10:28 am 10:28 Mostly Cloudy 63 17 55 13 77 77 NW 13 20 30.00 1016 9 14 0.00 0.00
10:49 am 10:49 Partly Cloudy 64 18 55 13 73 73 WNW 13 20 30.00 1016 10 16 0.00 0.00
10:53 am 10:53 Mostly Cloudy 64 17.8 55 12.8 73 73 WNW 14 22 30.01 1016 10 16 0.00 0.00
11:53 am 11:53 Mostly Cloudy 65 18.3 51 10.6 61 61 W 16 26 30.02 1017 10 16 0.00 0.00
12:53 pm 12:53 Cloudy 66 18.9 49 9.4 54 54 NW 14 22 30.02 1017 10 16 0.00 0.00
1:53 pm 13:53 Cloudy 69 20.6 48 8.9 47 47 NW 14 22 30.02 1017 10 16 0.00 0.00
2:53 pm 14:53 Cloudy 69 20.6 44 6.7 41 41 NW 15 24 30.01 1016 10 16 0.00 0.00
3:53 pm 15:53 Mostly Cloudy 69 20.6 40 4.4 35 35 NW 15 24 30.00 1016 10 16 0.00 0.00
4:01 pm 16:01 Sunny 69 20.6 42 5.6 38 38 NNW 16 26 30.00 1016 10 16 0.00 0.00
4:53 pm 16:53 Sunny 70 21.1 42 5.6 37 37 NW 14 22 29.99 1016 10 16 0.00 0.00
5:53 pm 17:53 Partly Cloudy 68 20 36 2.2 31 31 NW 17 28 30.00 1016 10 16 0.00 0.00
6:53 pm 18:53 Sunny 66 18.9 38 3.3 36 36 W 13 20 30.01 1016 10 16 0.00 0.00
7:53 pm 19:53 Sunny 63 17.2 37 2.8 38 38 NW 12 19 30.03 1017 10 16 0.00 0.00
8:53 pm 20:53 Clear 59 15 38 3.3 46 46 NNW 7 11 30.05 1018 10 16 0.00 0.00
9:53 pm 21:53 Clear 57 13.9 37 2.8 47 47 NNW 8 13 30.06 1018 10 16 0.00 0.00
10:53 pm 22:53 Clear 56 13.3 37 2.8 49 49 WNW 3 6 30.07 1018 10 16 0.00 0.00
11:53 pm 23:53 Clear 53 11.7 38 3.3 57 57 WNW 5 7 30.06 1018 10 16 0.00 0.00

Powered by AerisWeather